Printer-friendly version

IAU Minor Planet Center

Minor Planet Center

MPEC 2005-V47 : 2005 VM1

The following Minor Planet Electronic Circular may be linked-to from your own Web pages, but must not otherwise be redistributed electronically.

A form allowing access to any MPEC is at the bottom of this page.


Read MPEC 2005-V46 Read MPEC 2005-V48


M.P.E.C. 2005-V47                                Issued 2005 Nov. 5, 12:18 UT

     The Minor Planet Electronic Circulars contain information on unusual
         minor planets and routine data on comets.  They are published
   on behalf of Commission 20 of the International Astronomical Union by the
          Minor Planet Center, Smithsonian Astrophysical Observatory,
                          Cambridge, MA 02138, U.S.A.

                  Supported in part by the Brinson Foundation
                  Supported in part by the TABASGO Foundation
             Prepared using the Tamkin Foundation Computer Network

                              MPC@CFA.HARVARD.EDU
          URL http://cfa-www.harvard.edu/iau/mpc.html  ISSN 1523-6714

                                   2005 VM1

Observations:
     K05V01M* C2005 11 04.36848 03 52 46.84 +18 06 20.5          20.2 V EV047691
     K05V01M  C2005 11 04.38703 03 52 41.15 +18 08 42.6          20.5 V EV047691
     K05V01M  C2005 11 04.40441 03 52 35.90 +18 10 52.6          20.4 V EV047691
     K05V01M tC2005 11 04.47851 03 52 13.35 +18 20 16.9          20.7 V EV047691
     K05V01M tC2005 11 04.48159 03 52 12.39 +18 20 41.4          20.6 V EV047691
     K05V01M  C2005 11 05.03332 03 49 31.84 +19 30 46.1                 EV047J95
     K05V01M  C2005 11 05.03864 03 49 30.17 +19 31 28.0                 EV047J95
     K05V01M  C2005 11 05.04410 03 49 28.49 +19 32 09.7          20.3 R EV047J95
     K05V01M 5C2005 11 05.25625 03 48 26.50 +19 59 20.3          20.2 R EV047673
     K05V01M 5C2005 11 05.26279 03 48 24.43 +20 00 09.4                 EV047673
     K05V01M 5C2005 11 05.26898 03 48 22.48 +20 00 56.6                 EV047673
     K05V01M 5C2005 11 05.27847 03 48 19.67 +20 02 07.6                 EV047673
     K05V01M  C2005 11 05.36580 03 47 51.76 +20 13 19.8          20.5 R EV047651
     K05V01M  C2005 11 05.36917 03 47 50.76 +20 13 44.9          20.4 R EV047651
     K05V01M  C2005 11 05.37253 03 47 49.63 +20 14 10.6          20.4 R EV047651

Observer details:
651 Grasslands Observatory, Tucson.  Observer J. E. McGaha.  0.62-m f/5.1
    reflector + CCD.
673 Table Mountain Observatory, Wrightwood.  Observer J. Young.  0.6-m f/16
    Cassegrain + CCD.
691 Steward Observatory, Kitt Peak.  Observer A. S. Descour.  0.9-m f/3
    reflector + CCD.
J95 Great Shefford.  Observer P. Birtwhistle.  0.40-m f/6.0 Schmidt-Cassegrain
    + CCD.

Orbital elements:
2005 VM1
Epoch 2005 Aug. 18.0 TT = JDT 2453600.5                 MPC
M 329.48064              (2000.0)            P               Q
n   0.52516639     Peri.  342.51708     +0.84839266     -0.37446788
a   1.5214982      Node    45.83682     +0.52625002     +0.52001206
e   0.2144332      Incl.   31.43931     +0.05736553     +0.76769868
P   1.88           H   22.7           G   0.15           U   9
Residuals in seconds of arc
051104 691  0.5+  0.2+    051105 J95  0.3+  0.9-    051105 673  1.1-  0.2+
051104 691  0.0   0.9+    051105 J95  0.1-  0.4+    051105 673  1.2+  1.7-
051104 691  0.6+  1.5-    051105 J95  0.0   0.4+    051105 651  0.1-  0.3+
051104 691  0.5-  0.3-    051105 673  0.5-  1.6+    051105 651  0.8+  0.3-
051104 691  1.0-  0.8+    051105 673  0.9-  0.5+    051105 651  0.1-  0.2-

Ephemeris:
2005 VM1                 a,e,i = 1.52, 0.21, 31                  q = 1.1952
Date    TT    R. A. (2000) Decl.     Delta      r     Elong.  Phase     V
2005 11 06    03 44.65   +21 34.0    0.221    1.206   164.7    12.5    20.6
2005 11 16    02 45.91   +40 19.9    0.244    1.217   156.8    18.7    21.0
2005 11 26    01 45.24   +51 13.3    0.304    1.233   139.0    31.7    21.9
2005 12 06    01 01.12   +56 06.1    0.382    1.251   126.6    39.2    22.7
2005 12 16    00 38.42   +58 24.9    0.468    1.273   118.1    43.0    23.2

Timothy B. Spahr             (C) Copyright 2005 MPC           M.P.E.C. 2005-V47

Read MPEC 2005-V46 Read MPEC 2005-V48


MPEC number:

Enter an
MPEC number in one of the following forms:
  • 1997-B01 (the full form)
  • J97B01 (the packed version of the full form)
  • B01 (the abbreviated form)

Valid HTML 4.01!